Theta_e
303 303 303 303 304 304 305 305 306 306 308 309 311 311 312 313 316 320 322 328 331 329 328 332 338 338 340 337 344 343 345 350 357 360 359 355 357 352 350 352 351 349 348 347 347
303 302 302 303 303 303 304 305 305 306 307 309 310 311 312 314 317 324 328 328 328 328 325 328 327 335 334 336 337 340 344 346 353 354 358 356 356 355 355 354 353 350 348 348 347
303 303 302 302 302 303 303 304 305 306 307 308 309 311 312 314 321 324 327 326 329 328 324 324 325 326 327 329 338 337 340 344 353 353 354 356 357 354 356 358 353 351 349 346 346
302 302 302 302 302 302 303 303 304 306 307 307 308 310 311 318 324 326 323 323 323 324 323 325 325 326 330 331 339 339 340 348 351 354 355 357 354 356 356 354 350 348 346 345 345
302 302 302 302 302 302 302 303 304 305 306 307 307 309 311 315 318 321 321 321 323 326 323 323 326 327 328 331 335 336 348 350 353 353 353 354 357 357 354 348 346 346 344 344 343
303 302 302 302 302 302 302 302 304 304 305 307 307 309 317 313 317 318 319 321 322 328 326 324 326 326 327 331 338 337 349 353 351 355 356 358 358 356 353 347 346 345 343 342 341
303 302 302 302 302 302 302 302 304 304 305 306 307 312 319 312 317 318 319 318 318 318 320 323 325 327 328 335 340 337 346 350 355 355 357 353 358 359 352 348 347 346 344 343 341
303 303 302 302 302 302 302 302 304 305 306 307 308 317 309 314 315 316 317 317 319 320 321 323 323 324 337 339 339 339 337 345 347 351 355 349 361 357 352 351 350 348 346 345 342
303 303 303 302 302 302 302 309 314 313 309 309 313 314 311 317 321 319 319 317 319 321 323 323 323 328 337 338 338 338 342 342 341 348 354 352 360 357 352 352 353 351 349 347 344
303 303 302 302 302 302 310 315 317 316 315 316 319 313 312 317 321 320 321 319 319 321 322 322 321 323 334 336 342 343 342 342 343 343 351 356 358 356 353 352 353 352 351 351 349
303 303 302 302 302 306 310 314 306 309 308 314 312 313 314 318 319 320 321 320 320 320 320 320 321 323 329 335 338 340 340 344 344 343 345 351 360 357 353 351 352 349 351 350 348
303 302 302 302 302 306 309 306 307 306 306 309 310 312 315 317 317 317 321 320 320 320 318 319 320 321 324 335 340 341 340 344 341 342 343 353 359 357 355 353 351 350 350 349 347
302 301 301 302 303 303 305 307 304 305 305 310 312 313 314 315 316 317 320 319 320 318 317 318 320 324 328 334 339 339 340 340 341 341 341 351 353 359 355 353 352 350 348 347 347
301 301 301 301 302 301 302 303 304 305 307 310 312 313 314 316 318 318 320 318 318 319 317 318 319 326 329 336 337 337 338 340 341 340 342 343 346 352 355 356 354 353 351 349 347
302 301 301 301 301 301 303 303 306 306 304 311 314 315 314 317 318 319 320 318 318 317 317 318 320 321 327 331 337 338 337 340 340 339 338 341 343 340 351 356 354 353 351 350 348
302 301 300 301 302 302 303 305 307 311 313 314 317 315 315 316 319 319 321 319 318 318 318 318 321 322 323 328 335 335 339 336 329 331 340 339 342 342 348 351 351 351 351 350 348
300 300 301 300 302 302 305 304 310 311 311 313 316 312 314 315 317 320 320 320 318 315 317 318 320 321 327 328 329 336 332 335 334 333 340 331 342 341 340 343 347 348 349 349 348
300 301 301 302 303 303 305 307 311 311 311 310 308 309 314 315 317 319 319 321 318 315 313 317 318 320 322 326 328 332 331 333 339 333 329 333 343 342 339 339 341 344 346 347 347
299 301 303 305 304 305 301 307 309 311 308 308 309 312 311 309 314 318 318 321 320 314 316 315 317 320 322 326 327 328 331 332 331 325 329 329 330 336 338 340 339 342 344 346 346
299 302 303 303 305 305 302 306 307 308 307 306 307 308 309 309 310 312 316 317 319 317 315 317 319 320 326 323 325 327 326 329 324 333 333 331 332 337 343 340 339 341 344 344 343
302 298 303 304 304 298 304 304 306 306 306 307 307 307 308 308 308 310 314 317 319 318 315 317 317 320 323 324 326 327 327 324 324 325 331 332 332 327 341 339 339 339 342 341 341
299 297 302 306 302 298 302 304 307 306 307 306 307 307 307 308 308 309 311 314 312 316 317 315 314 319 321 324 324 325 326 325 328 329 325 328 330 331 338 339 338 338 339 339 339
297 296 304 304 305 304 305 309 308 309 309 307 307 308 308 307 308 308 310 314 311 312 316 315 314 317 321 319 323 325 324 322 322 321 327 330 330 326 333 337 337 338 338 337 338
298 302 301 299 300 307 308 309 310 308 309 309 309 308 309 308 306 308 309 310 310 311 326 327 312 318 319 323 322 326 325 324 325 325 325 326 328 327 326 331 335 337 338 338 337
297 306 305 307 305 304 306 307 308 308 309 310 310 310 309 306 306 307 308 308 311 316 320 316 316 315 319 321 325 327 327 323 325 324 328 328 327 326 326 328 330 336 337 338 338
301 301 300 301 301 305 306 307 310 311 312 312 311 312 312 311 307 307 307 308 309 314 315 315 317 317 317 319 320 320 323 326 325 323 325 325 325 323 326 333 330 334 336 336 338
301 301 301 303 302 306 308 310 308 309 310 311 312 311 312 312 312 311 311 310 307 307 307 315 317 317 321 319 321 324 323 324 326 323 325 326 325 326 329 332 333 331 335 336 337
Wind_Speed
25 25 24 24 23 22 22 21 22 22 20 22 21 22 23 26 25 12 5 1 3 7 7 7 8 10 9 4 6 4 3 3 5 6 5 7 5 5 7 8 3 3 5 17 25
26 26 25 25 24 24 23 22 22 22 21 21 22 22 22 25 20 8 6 6 4 2 6 8 5 8 4 5 4 4 4 7 8 7 9 13 7 8 6 3 4 8 16 27 24
27 27 27 27 26 25 25 24 23 22 20 22 21 21 21 18 6 4 9 12 5 3 4 6 5 3 2 3 3 4 5 5 8 8 15 13 10 4 11 3 5 11 19 19 20
27 29 29 29 28 27 25 25 24 21 21 21 21 21 17 6 4 3 4 12 12 8 6 4 3 4 2 4 3 3 5 4 9 11 11 10 5 8 2 2 9 15 20 17 13
28 30 32 32 31 29 26 25 24 21 20 19 19 18 6 3 9 10 11 15 9 6 4 4 2 3 3 3 2 4 4 4 16 13 11 11 8 6 6 9 14 17 15 13 10
31 33 34 34 33 32 28 27 24 22 20 17 17 12 1 6 10 15 15 5 6 6 3 4 3 5 3 4 3 3 10 11 15 13 12 11 6 4 5 11 13 13 11 9 9
32 34 36 37 36 34 31 29 25 22 20 17 13 4 1 14 11 12 17 23 24 18 5 10 8 3 5 5 6 5 10 10 8 6 6 14 5 4 11 11 12 11 10 9 9
32 34 37 38 39 36 35 30 25 24 19 13 7 2 7 15 16 22 22 20 15 13 17 19 10 4 4 2 6 5 5 4 5 7 7 0 0 7 12 12 10 12 10 11 10
32 34 37 39 40 37 34 29 23 14 6 4 3 3 9 8 8 15 20 12 6 8 9 10 4 3 4 5 4 6 5 2 4 9 7 2 3 12 14 14 14 13 12 12 11
32 35 37 39 41 35 29 14 10 11 8 4 1 2 6 5 6 11 14 16 5 1 0 2 4 3 4 4 5 5 4 3 4 6 4 5 5 15 15 12 12 12 13 14 13
31 34 38 39 42 21 28 5 7 5 8 6 4 4 5 12 7 5 6 9 5 5 5 2 4 6 11 9 4 6 5 6 3 2 4 5 9 18 17 13 13 12 14 13 13
31 33 37 38 34 15 16 6 6 5 10 9 16 14 30 8 6 4 3 5 6 6 6 2 6 9 7 3 4 5 4 5 2 6 4 6 8 16 18 19 16 15 13 14 11
30 32 36 38 17 17 12 7 19 16 4 8 8 7 7 13 9 10 5 2 6 7 8 8 6 8 8 5 6 4 5 3 3 5 4 6 1 9 12 11 13 14 13 13 13
29 31 34 40 5 26 11 25 25 8 3 7 6 9 8 10 7 11 13 6 2 14 8 7 6 7 5 9 8 8 11 8 8 4 3 4 4 7 13 18 15 17 16 15 14
30 31 32 26 14 12 16 28 25 3 4 4 5 1 4 12 8 10 14 4 8 6 9 9 9 12 8 10 9 10 8 10 5 5 4 3 1 5 15 16 19 19 19 17 16
32 32 33 20 19 10 24 24 4 4 8 6 3 4 5 3 4 5 7 4 6 3 2 9 3 9 11 10 12 6 2 3 5 4 2 6 7 5 8 20 19 20 20 19 17
32 34 31 16 6 18 17 6 4 4 6 5 3 5 4 7 7 6 12 12 8 8 11 2 13 3 3 3 6 4 7 3 4 1 7 6 6 14 10 10 18 21 21 20 17
32 31 26 20 14 8 7 4 4 4 8 7 8 11 5 6 7 6 11 14 11 6 6 9 7 12 6 9 8 8 9 6 6 3 5 4 6 10 19 17 19 19 21 19 17
32 23 14 8 4 3 4 2 6 1 5 12 10 6 7 8 3 6 6 19 16 10 8 8 7 2 9 5 11 5 5 10 2 5 3 5 7 6 6 14 14 15 13 16 17
26 11 7 18 1 3 4 4 4 3 9 6 6 7 6 9 9 6 9 5 7 13 6 6 2 6 4 6 5 10 7 3 2 6 7 5 5 5 3 11 13 14 17 17 16
8 4 2 20 10 4 3 6 5 3 9 6 4 6 4 6 6 5 4 4 9 7 8 6 4 4 7 8 16 4 3 4 5 6 6 2 6 6 10 12 18 18 18 17 17
5 3 10 20 3 1 2 3 7 7 4 4 5 7 6 5 5 4 5 4 12 3 11 8 5 4 10 1 5 10 10 8 5 5 3 4 7 4 10 14 14 14 15 18 17
3 3 7 7 3 2 5 4 3 4 5 5 6 2 4 5 5 6 6 7 12 10 7 8 5 1 2 5 2 6 6 6 5 4 6 7 7 3 4 6 11 15 15 16 18
2 3 4 4 0 2 4 3 4 4 3 7 5 5 6 8 7 8 6 9 17 18 17 7 5 12 8 6 6 6 7 7 8 5 6 6 8 6 7 11 12 17 17 18 18
1 1 1 3 2 4 1 3 4 4 3 4 4 5 6 5 5 12 13 15 14 6 6 9 8 7 18 6 2 6 7 10 8 8 8 8 9 10 8 10 10 19 20 16 17
2 1 3 3 4 3 1 3 6 7 2 6 6 7 6 5 8 12 11 5 8 5 8 8 6 9 9 18 21 9 8 8 11 6 5 7 9 9 3 4 6 13 15 16 17
1 1 3 4 3 2 1 3 8 13 9 15 12 12 14 13 9 9 12 18 18 16 9 5 2 7 19 7 6 11 22 10 7 6 10 9 11 4 6 8 8 10 15 20 20
Wind_Direction
12 9 5 1 358 355 352 350 349 348 343 339 337 339 338 333 332 324 268 282 127 120 157 161 203 210 199 221 202 159 72 166 171 165 148 159 143 154 89 133 106 127 115 122 144
7 5 2 359 354 351 347 345 344 343 340 336 335 334 339 335 330 295 332 282 259 235 180 194 198 174 201 211 198 146 141 193 167 152 162 155 156 131 124 125 53 84 101 125 143
4 1 359 356 351 347 343 340 337 337 335 333 332 334 336 338 330 261 54 46 30 295 257 280 290 213 258 223 187 175 191 165 156 142 144 142 134 89 127 224 194 164 142 140 146
1 358 356 354 350 343 336 332 329 327 328 329 327 331 335 337 265 99 56 14 357 324 310 289 302 5 311 296 197 105 59 121 139 131 138 143 83 106 351 318 140 148 141 142 151
360 357 355 352 349 342 332 327 322 318 318 320 324 333 345 336 248 249 296 316 330 321 315 293 352 324 9 310 30 87 110 54 135 131 126 100 88 88 73 94 112 132 136 150 149
356 355 354 351 347 341 332 321 314 312 309 308 315 330 47 248 265 274 280 299 2 329 299 275 321 280 287 334 71 65 94 97 131 120 122 111 121 91 120 123 122 138 143 159 162
352 352 350 348 345 339 330 317 309 305 302 300 300 316 188 238 262 275 277 282 286 283 274 257 278 349 13 349 7 102 86 62 103 112 118 120 47 100 146 142 143 154 163 174 182
349 349 348 346 343 338 327 319 309 301 293 283 265 154 245 265 269 266 269 274 266 262 249 274 254 250 165 97 27 86 48 117 219 159 175 111 224 158 162 165 172 178 186 191 195
346 346 345 344 343 337 330 325 311 297 263 205 167 164 267 294 269 271 254 238 226 247 252 260 179 183 106 91 21 9 154 180 166 197 162 99 146 185 178 186 185 192 193 198 202
344 343 344 343 343 339 338 337 48 73 92 108 126 358 269 264 296 299 279 219 166 354 69 143 65 106 38 76 210 179 135 264 213 208 120 129 164 173 185 193 194 199 202 202 201
344 342 342 342 344 349 352 17 14 352 10 234 233 267 290 349 336 288 303 143 131 126 149 269 113 181 205 199 185 190 143 174 223 187 124 177 157 182 189 199 203 214 200 205 205
344 343 341 341 345 360 22 74 72 282 300 257 247 249 262 298 306 311 331 145 139 165 127 49 207 223 207 185 183 221 164 204 237 153 100 175 191 185 190 203 204 211 212 211 200
342 343 342 340 348 354 5 78 341 349 228 281 223 218 211 162 211 262 169 178 156 153 169 168 220 162 176 203 187 228 186 165 236 126 51 122 70 189 214 206 213 217 216 223 210
341 342 343 342 15 340 324 330 334 337 318 270 233 250 182 144 252 213 193 167 235 188 135 212 189 184 187 214 157 203 200 176 154 91 205 170 270 211 198 209 209 214 210 216 213
337 338 339 346 320 315 318 327 333 135 313 228 216 97 202 172 153 218 168 112 194 176 137 224 173 169 210 212 164 229 167 180 138 128 128 199 355 272 178 208 213 211 213 209 211
334 333 334 330 314 301 326 323 334 53 243 301 171 162 108 263 241 122 152 127 166 204 119 210 187 167 196 210 196 224 190 108 57 94 339 190 152 251 185 210 207 212 208 211 206
333 329 324 310 270 311 324 344 67 185 329 293 359 18 251 189 217 188 162 172 172 153 203 158 237 233 119 97 313 158 76 5 355 69 228 143 164 234 216 201 199 201 204 203 202
331 329 322 304 306 303 331 51 181 225 270 354 353 307 212 167 225 228 170 183 202 123 132 186 224 198 178 172 179 214 149 162 195 197 264 110 222 250 219 202 194 198 198 191 195
334 329 327 17 4 142 73 123 207 270 4 336 337 9 337 345 358 147 208 202 188 177 161 156 240 266 178 149 148 209 182 204 115 43 294 211 276 295 279 177 168 187 180 191 195
333 319 304 15 218 96 72 227 250 354 359 348 29 13 339 331 12 356 178 190 183 193 155 186 163 221 174 124 230 150 173 89 5 203 243 284 279 249 148 163 164 180 189 192 195
343 360 354 350 154 47 165 246 289 66 7 349 352 323 312 343 323 292 266 274 172 187 149 144 121 267 150 196 193 148 181 85 128 137 183 182 269 224 195 188 180 189 193 190 188
3 335 351 347 68 29 193 258 326 329 0 272 285 250 262 347 316 297 302 306 17 319 182 203 164 208 203 197 181 183 188 160 152 242 250 153 262 213 192 202 180 194 193 194 195
347 269 339 360 84 336 302 296 260 321 24 339 319 6 325 336 324 283 269 312 339 356 188 176 210 91 71 337 135 166 179 135 118 100 200 143 254 265 125 178 202 195 192 193 198
23 354 325 35 29 61 354 293 302 307 275 245 249 266 303 289 210 276 290 313 325 310 284 261 154 200 207 217 139 170 164 170 154 146 186 210 250 245 195 204 217 211 204 191 189
59 2 91 316 334 322 276 281 297 302 324 314 291 235 259 267 292 244 268 283 289 299 304 157 205 189 217 219 145 173 178 164 177 189 175 222 203 242 245 206 215 209 200 187 191
118 84 334 270 292 245 240 260 302 300 296 280 222 255 284 237 239 275 313 319 262 329 6 337 235 168 221 218 236 243 242 189 214 168 206 166 236 214 199 189 185 204 192 190 189
297 316 136 278 310 316 244 328 300 315 273 241 272 316 290 262 276 283 276 279 263 290 314 291 322 171 223 174 199 241 235 224 208 176 179 188 224 170 212 202 200 192 194 191 199